Location: �perlecques
(50.8057°N, 2.1521°E)
Time: 07:55:24
(UTC+00:00)

STARS - Pass Details

Date: 09 April 2023
Orbit: 616 x 630 km, 98.1° (Epoch: 02 June)

Event Time Altitude Azimuth Distance (km) Brightness Sun altitude
Rises 00:24:39 0° 5° (N) 2,923 ? -31.4°
Reaches altitude 10° 00:27:09 10° 352° (N) 2,014 ? -31.3°
Enters shadow 00:29:36 22° 321° (NW) 1,372 ? -31.3°
